map of KUV home
Great Circle Mapper logo
KUV - Airport
Location
City:  Kunsan, Republic of Korea (South Korea)
Near (Alt.):Gunsan
Name:Gunsan
Old (Alt.):Kunsan AB
ICAO / IATA:RKJK / KUV

Details
Type:Airport (Aerodrome, Airfield)
Use:Military, International (customs port of entry)
Latitude:35°54'14"N (35.903756)
Longitude:126°36'57"E (126.615906)
Datum:WGS 1984
Elevation:29 ft (9 m)
Runways:1
Longest:9000 × 150 ft (2743 × 45.5 m), paved

Time
Time Zone:UTC+9
Local Time:

Weather
METAR:RKJK 011306Z AUTO 01002KT 5SM R18/5000FT BR SCT070 19/17 A3000 RMK AO2 $

Related Locations
Nearby:
Farthest:SUPE: 12327 mi / 19838 km
Punta el Este [El Jagüel Airport], Maldonado, UY

Find:

   beyond  
but within

Other Information
Maps:
NOTAMs:
Links:
Sources:

  
flag of Republic of Korea (South Korea)   

Airport Diagram

Airport diagram for KUV

Airport diagram (OBSOLETE) from NGA

Sectional Chart

Flight Planning
at skyvector.com

Satellite Image

Google Maps Satellite View

 

Copyright © 2004-2014 Karl L. Swartz. All rights reserved.
The Great Circle Mapper name and logo are trademarks of the Great Circle Mapper.
All other trademarks mentioned herein belong to their respective owners.
Please see credits for attibutions and further copyright information.

  Follow gcmap on Facebook Follow gcmap on Twitter

hCard Microformat

Geo Microformat